FW6155 Weather Reports


Display with metric or nautical units.
time (UTC)temp
F
wind
direction
speed
MPH
gust
MPH
rain 1hr
in
rain 24hr
in
rain mn
in
humidity
%
barometer
mb
20260505041546 66 0.0 0.0 0.00 0.00 0.00 67 1011.6
20260505040045 67 0.0 0.0 0.00 0.00 0.00 66 1011.5
20260505034546 68 0.0 0.0 0.00 0.00 0.00 64 1011.1
20260505033048 69 0.0 0.0 0.00 0.00 0.00 62 1010.7
20260505031546 70 0.0 0.0 0.00 0.00 0.00 60 1010.5
20260505030100 71 0.0 0.0 0.00 0.00 0.00 60 1010.3
20260505024545 71 0.0 0.0 0.00 0.00 0.00 61 1010.1
20260505023048 72 0.0 0.0 0.00 0.00 0.00 60 1010.2
20260505021547 73 0.0 0.0 0.00 0.00 0.00 57 1010.2
20260505020047 73 0.0 0.0 0.00 0.00 0.00 56 1010.1
20260505014546 74 0.0 0.0 0.00 0.00 0.00 55 1010.1
20260505013043 75 0.0 0.0 0.00 0.00 0.00 54 1010.2
20260505011550 75 0.0 0.0 0.00 0.00 0.00 50 1010.1
20260505010045 76 0.0 0.0 0.00 0.00 0.00 47 1010.1
20260505004549 76 0.0 0.0 0.00 0.00 0.00 47 1010.2
20260505003043 76 0.0 0.0 0.00 0.00 0.00 46 1010.2
20260505001544 76 0.0 0.0 0.00 0.00 0.00 45 1010.4
20260505000042 76 0.0 0.0 0.00 0.00 0.00 43 1010.4
20260504234542 76 0.0 0.0 0.00 0.00 0.00 41 1010.3
20260504233045 76 0.0 0.0 0.00 0.00 0.00 41 1010.4
20260504231544 76 0.0 0.0 0.00 0.00 0.00 42 1010.3
20260504230043 77 0.0 0.0 0.00 0.00 0.00 40 1010.4
20260504224542 76 0.0 0.0 0.00 0.00 0.00 41 1010.9
20260504223047 76 0.0 0.0 0.00 0.00 0.00 40 1010.9
20260504221545 76 0.0 0.0 0.00 0.00 0.00 43 1011.0
20260504220110 76 0.0 0.0 0.00 0.00 0.00 43 1011.3
20260504214551 76 0.0 0.0 0.00 0.00 0.00 41 1011.4
20260504213047 76 0.0 0.0 0.00 0.00 0.00 42 1011.4
20260504211551 76 0.0 0.0 0.00 0.00 0.00 44 1011.4
20260504210045 76 0.0 0.0 0.00 0.00 0.00 46 1011.5
20260504204544 76 0.0 0.0 0.00 0.00 0.00 43 1011.6
20260504203043 76 0.0 0.0 0.00 0.00 0.00 43 1011.6
20260504201547 76 0.0 0.0 0.00 0.00 0.00 46 1011.6
20260504200050 76 0.0 0.0 0.00 0.00 0.00 49 1011.6
20260504194547 75 0.0 0.0 0.00 0.00 0.00 45 1011.6
20260504193043 75 0.0 0.0 0.00 0.00 0.00 47 1011.8
20260504191553 75 0.0 0.0 0.00 0.00 0.00 47 1011.8
20260504190057 74 0.0 0.0 0.00 0.00 0.00 49 1011.9
20260504184559 73 0.0 0.0 0.00 0.00 0.00 52 1011.9
20260504183050 72 0.0 0.0 0.00 0.00 0.00 53 1012.1
20260504181547 72 0.0 0.0 0.00 0.00 0.00 54 1012.1
20260504180052 71 0.0 0.0 0.00 0.00 0.00 57 1012.1
20260504174547 70 0.0 0.0 0.00 0.00 0.00 59 1012.2
20260504173047 69 0.0 0.0 0.00 0.00 0.00 60 1012.1
20260504171544 68 0.0 0.0 0.00 0.00 0.00 61 1012.0
20260504081553 61 0.0 0.0 0.00 0.00 0.00 67 1010.2
20260504044547 67 0.0 0.0 0.00 0.00 0.00 60 1010.3